SM6VFJ-1 Weather Reports


time (UTC)temp
C
wind
direction
speed
KPH
gust
KPH
rain 1hr
cm
rain 24hr
cm
rain mn
cm
humidity
%
barometer
mb
20260503021603 10 293 0.0 0.0 0.00 0.00 0.00 84 1008.7
20260503014605 10 293 0.0 0.0 0.00 0.00 0.00 83 1008.8
20260503013056 10 293 0.0 0.0 0.00 0.00 0.00 81 1008.6
20260503011559 11 293 0.0 0.0 0.00 0.00 0.00 80 1008.8
20260503010059 11 293 0.0 0.0 0.00 0.00 0.00 78 1008.7
20260503004558 11 293 0.0 0.0 0.00 0.00 0.00 77 1008.8
20260503003102 12 293 0.0 0.0 0.00 0.00 0.00 76 1008.7
20260503001601 12 293 0.0 0.0 0.00 0.00 0.00 74 1008.7
20260503000043 12 293 0.0 0.0 0.00 0.00 0.00 74 1008.8
20260502234539 12 293 0.0 0.0 0.00 0.00 0.00 73 1008.9
20260502233036 13 293 0.0 0.0 0.00 0.00 0.00 71 1009.1
20260502231534 13 293 0.0 0.0 0.00 0.00 0.00 73 1009.3
20260502230033 13 293 0.0 0.0 0.00 0.00 0.00 72 1009.6
20260502224535 14 294 0.0 8.0 0.00 0.00 0.00 72 1009.7
20260502223028 14 311 0.0 9.7 0.00 0.00 0.00 71 1009.5
20260502221526 15 272 0.0 8.0 0.00 0.00 0.00 71 1009.7
20260502220028 15 291 1.6 11.3 0.00 0.00 0.00 70 1009.5
20260502214521 15 216 3.2 11.3 0.00 0.00 0.00 67 1009.7
20260502213021 15 226 3.2 11.3 0.00 0.00 0.00 65 1009.7
20260502211522 15 230 1.6 6.4 0.00 0.00 0.00 62 1009.6
20260502210021 15 215 0.0 4.8 0.00 0.00 0.00 61 1009.7
20260502204532 16 220 0.0 0.0 0.00 0.00 0.00 60 1009.7
20260502203019 16 222 0.0 4.8 0.00 0.00 0.00 58 1009.5
20260502201519 16 198 0.0 4.8 0.00 0.00 0.00 57 1009.6
20260502200034 16 217 1.6 6.4 0.00 0.00 0.00 58 1009.7
20260502194517 17 210 0.0 4.8 0.00 0.00 0.00 57 1009.8
20260502193022 17 228 0.0 3.2 0.00 0.00 0.00 56 1009.9
20260502191517 17 216 0.0 8.0 0.00 0.00 0.00 55 1009.9
20260502190016 18 187 1.6 11.3 0.00 0.00 0.00 54 1009.9
20260502184520 18 241 1.6 12.9 0.00 0.00 0.00 52 1009.7
20260502183016 18 216 1.6 9.7 0.00 0.00 0.00 51 1009.7
20260502181522 19 253 1.6 12.9 0.00 0.00 0.00 50 1009.8
20260502163010 21 268 1.6 22.5 0.00 0.00 0.00 39 1009.7
20260502161510 22 289 1.6 19.3 0.00 0.00 0.00 38 1009.8
20260502151506 22 261 4.8 24.1 0.00 0.00 0.00 34 1010.4
20260502123043 22 222 3.2 25.7 0.00 0.00 0.00 39 1012.2
20260502121541 22 256 9.7 22.5 0.00 0.00 0.00 40 1012.4
20260502114539 22 202 4.8 25.7 0.00 0.00 0.00 40 1012.7
20260502113041 22 299 3.2 22.5 0.00 0.00 0.00 42 1012.9
20260502111532 21 266 9.7 16.1 0.00 0.00 0.00 43 1013.1
20260502110032 21 196 3.2 27.4 0.00 0.00 0.00 43 1013.2
20260502104527 21 274 3.2 20.9 0.00 0.00 0.00 43 1013.4
20260502103053 21 272 3.2 25.7 0.00 0.00 0.00 43 1013.8
20260502101521 21 214 3.2 32.2 0.00 0.00 0.00 44 1014.0
20260502091509 20 226 3.2 19.3 0.00 0.00 0.00 46 1014.6
20260502071536 15 231 3.2 17.7 0.00 0.00 0.00 62 1016.0
20260502070031 15 191 3.2 17.7 0.00 0.00 0.00 62 1016.0
20260502064526 14 226 1.6 19.3 0.00 0.00 0.00 65 1016.3
20260502063022 13 232 4.8 11.3 0.00 0.00 0.00 64 1016.4
20260502061518 13 212 3.2 19.3 0.00 0.00 0.00 66 1016.5
20260502060014 12 193 1.6 16.1 0.00 0.00 0.00 68 1016.7
20260502054511 12 206 1.6 11.3 0.00 0.00 0.00 69 1016.8
20260502053004 11 249 3.2 16.1 0.00 0.00 0.00 70 1016.9
20260502051501 11 203 4.8 14.5 0.00 0.00 0.00 71 1017.2
20260502050058 10 174 6.4 14.5 0.00 0.00 0.00 72 1017.3
20260502044555 10 210 4.8 14.5 0.00 0.00 0.00 73 1017.4
20260502043100 10 187 4.8 14.5 0.00 0.00 0.00 74 1017.6
20260502041549 9 218 4.8 14.5 0.00 0.00 0.00 74 1017.8
20260502040050 8 197 4.8 14.5 0.00 0.00 0.00 75 1017.9
20260502034542 9 249 6.4 14.5 0.00 0.00 0.00 74 1018.0
20260502033043 9 218 3.2 16.1 0.00 0.00 0.00 74 1018.1
20260502031537 9 189 9.7 24.1 0.00 0.00 0.00 74 1018.1
20260502030042 9 203 6.4 14.5 0.00 0.00 0.00 73 1018.3
20260502024532 9 204 4.8 11.3 0.00 0.00 0.00 73 1018.5
20260502023029 9 192 1.6 9.7 0.00 0.00 0.00 72 1018.6